Change the Weather History Date:

Tuesday, July 2, 2013

  Actual Average Record
Temperature  
Mean Temperature 52 °F -  
Max Temperature 57 °F 55 °F 62 °F (2000)
Min Temperature 47 °F 46 °F 41 °F (1996)
Degree Days  
Heating Degree Days 13    
Growing Degree Days 2 (Base 50)    
Moisture  
Dew Point 39 °F    
Average Humidity 60    
Maximum Humidity 72    
Minimum Humidity 36    
Precipitation  
Precipitation 0.00 in 0.07 in - ()
Sea Level Pressure  
Sea Level Pressure 30.32 in    
Wind  
Wind Speed 1 mph ()    
Max Wind Speed 9 mph    
Max Gust Speed -    
Visibility 9.0 miles    
Events      
Averages and records for this station are not official NWS values.
T = Trace of Precipitation, MM = Missing Value Source: Averaged Metar Reports

Daily Weather History Graph

Daily Weather History Graph

Search for Another Location

Airport or City:

Trip Planner

Search our weather history database for the weather conditions in past years. The results will help you decide how hot, cold, wet, or windy it might be!

Date:

Astronomy

Jul. 02, 2013 Rise Set
Actual Time 5:38 AM CEST 9:04 PM CEST
Civil Twilight 5:01 AM CEST 9:40 PM CEST
Nautical Twilight 4:14 AM CEST 10:27 PM CEST
Astronomical Twilight 3:13 AM CEST 11:28 PM CEST
Moon 1:38 AM CEST (7/2) 3:56 PM CEST (7/2)
Length of Visible Light 16h 38m
Length of Day
15h 26m
Waning Crescent, 29% of the Moon is Illuminated
Jul 2
Waning Crescent
Jul 8
New
Jul 16
First Quarter
Jul 22
Full
Jul 29
Last Quarter

Hourly Weather History & Observations

Time (CEST) Temp. Dew Point Humidity Pressure Visibility Wind Dir Wind Speed Gust Speed Precip Events Conditions
12:55 AM 50.0 °F 33.8 °F 54% 30.33 in - Calm Calm - N/A   Clear
1:55 AM 50.0 °F 30.2 °F 47% 30.33 in - Calm Calm - N/A   Clear
2:00 AM 49 °F 30 °F 36%  in 19 mi Calm Calm - -  
2:55 AM 48.2 °F 30.2 °F 50% 30.33 in - Calm Calm - N/A   Clear
3:55 AM 48.2 °F 30.2 °F 50% 30.33 in - Calm Calm - N/A   Clear
4:55 AM 48.2 °F 32.0 °F 54% 30.33 in - Calm Calm - N/A   Clear
5:55 AM 48.2 °F 35.6 °F 62% 30.30 in - Calm Calm - N/A   Clear
6:55 AM 48.2 °F 35.6 °F 62% 30.30 in - Calm Calm - N/A   Clear
7:55 AM 48.2 °F 37.4 °F 66% 30.30 in - Calm Calm - N/A   Clear
8:00 AM 49 °F 38 °F 55%  in 19 mi Calm Calm - -  
8:55 AM 50.0 °F 39.2 °F 66% 30.30 in - Calm Calm - N/A   Clear
9:55 AM 51.8 °F 39.2 °F 62% 30.33 in - Calm Calm - N/A   Clear
10:55 AM 53.6 °F 41.0 °F 62% 30.33 in - Calm Calm - N/A   Clear
11:55 AM 53.6 °F 41.0 °F 62% 30.33 in - Calm Calm - N/A   Clear
12:55 PM 53.6 °F 42.8 °F 67% 30.33 in 6.2 mi Calm Calm - N/A   Scattered Clouds
1:55 PM 57.2 °F 44.6 °F 63% 30.33 in 6.2 mi Calm Calm - N/A   Scattered Clouds
2:00 PM 57 °F 45 °F 54%  in 31 mi Calm Calm - -   Partly Cloudy
2:55 PM 57.2 °F 44.6 °F 63% 30.33 in 6.2 mi North 8.1 mph - N/A   Scattered Clouds
3:55 PM 57.2 °F 44.6 °F 63% 30.33 in 6.2 mi Calm Calm - N/A   Scattered Clouds
4:55 PM 57.2 °F 44.6 °F 63% 30.33 in 6.2 mi Calm Calm - N/A   Scattered Clouds
5:55 PM 57.2 °F 44.6 °F 63% 30.33 in 6.2 mi North 5.8 mph - N/A   Scattered Clouds
6:55 PM 55.4 °F 44.6 °F 67% 30.27 in 6.2 mi SW 9.2 mph - N/A   Partly Cloudy
7:55 PM 55.4 °F 44.6 °F 67% 30.30 in - SW 6.9 mph - N/A   Clear
8:00 PM 56 °F 44 °F 55%  in 31 mi SW 6.9 mph - -  
8:55 PM 53.6 °F 44.6 °F 72% 30.30 in - Calm Calm - N/A   Clear
9:55 PM 53.6 °F 44.6 °F 72% 30.30 in - Calm Calm - N/A   Clear
10:55 PM 51.8 °F 41.0 °F 67% 30.30 in - Calm Calm - N/A   Clear
11:55 PM 50.0 °F 37.4 °F 62% 30.30 in - Calm Calm - N/A   Clear